Location: Maiden_LMO
(35.5760°N, 81.2120°W)
Time: 04:31:21
(UTC-04:00)

ADEOS II - Visible Passes

Search period start: 28 September 2016 00:00
Search period end: 08 October 2016 00:00
Orbit: 799 x 802 km, 98.3° (Epoch: 27 September)

Date Brightness Start Highest point End Pass type
(mag) Time Alt. Az. Time Alt. Az. Time Alt. Az.
28 Sep 3.5 05:03:53 10° NNE 05:08:42 36° E 05:13:30 10° SSE visible
28 Sep 3.2 06:44:02 10° NNW 06:48:11 24° WNW 06:52:21 10° WSW visible
29 Sep 4.4 04:38:23 10° NE 04:42:12 20° E 04:45:58 10° SE visible
29 Sep 2.4 06:17:06 10° N 06:22:03 42° WNW 06:26:58 10° SW visible
30 Sep 5.1 04:14:53 10° E 04:15:34 10° E 04:16:15 10° E visible
30 Sep 2.0 05:50:32 10° N 05:55:48 77° WNW 06:01:03 10° SSW visible
01 Oct 2.6 05:24:16 10° NNE 05:29:27 59° E 05:34:37 10° S visible
02 Oct 3.7 04:58:20 10° NE 05:03:01 32° E 05:07:40 10° SSE visible
02 Oct 3.0 06:38:13 10° NNW 06:42:34 27° WNW 06:46:56 10° SW visible
03 Oct 4.6 04:33:00 10° NE 04:36:29 18° E 04:39:57 10° SE visible
03 Oct 2.3 06:11:22 10° N 06:16:24 48° WNW 06:21:26 10° SW visible
04 Oct 2.0 05:44:51 10° NNE 05:50:08 86° WNW 05:55:24 10° SSW visible
05 Oct 2.8 05:18:38 10° NNE 05:23:47 52° E 05:28:53 10° S visible
06 Oct 3.9 04:52:47 10° NE 04:57:19 29° E 05:01:48 10° SSE visible
06 Oct 2.9 06:32:25 10° N 06:36:57 30° WNW 06:41:28 10° SW visible
07 Oct 4.7 04:27:39 10° NE 04:30:46 16° E 04:33:51 10° SE visible
07 Oct 2.2 06:05:38 10° N 06:10:46 54° WNW 06:15:52 10° SSW visible
